Regional Weather Roundup
Issued by NWS

Home | Current Version | Previous Version | Text Only | Print | Product List | Glossary On
Versions: 1 2 3 4 5 6 7 8 9 10 11 12 13 14 15 16 17 18 19 20 21 22 23 24 25 26 27 28 29 30 31 32 33 34 35 36 37 38 39 40 41 42 43 44 45 46 47 48 49 50
000
ASUS43 KMPX 091110
RWRMN
WEATHER ROUNDUP FOR MINNESOTA
NATIONAL WEATHER SERVICE TWIN CITIES/CHANHASSEN MN
500 AM CST TUE FEB 09 2016


NOTE: "FAIR" INDICATES FEW OR NO CLOUDS BELOW 12,000 FEET WITH NO
SIGNIFICANT WEATHER AND/OR OBSTRUCTIONS TO VISIBILITY. N/A MEANS
CURRENT SKY AND/OR WEATHER CONDITIONS ARE NOT AVAILABLE.

MNZ060>063-068>070-091200-
   Twin Cities Metro

CITY           SKY/WX    TMP DP  RH WIND       PRES   REMARKS
TWIN CITIES    CLOUDY     7  -1  70 NW20G25   30.05R WCI -13
ST PAUL        MOCLDY     7  -1  70 NW15      30.07R WCI -10
CRYSTAL        PTCLDY     7  -1  70 NW14G21   30.05R WCI -10
BLAINE         PTCLDY     9   1  72 NW15      30.05R WCI  -8
LAKEVILLE      MOCLDY     7   1  78 NW14      30.03R WCI -10
EDEN PRAIRIE   MOCLDY     8  -1  66 NW15      30.04R WCI  -9
SOUTH ST PAUL  PTCLDY     8   0  69 NW10G16   30.05R WCI  -6
LAKE ELMO      FAIR       7   0  72 N9        30.04R WCI  -7
$$
MNZ001>005-007-008-013>017-022>024-027-028-091200-
   Northwest Minnesota

CITY           SKY/WX    TMP DP  RH WIND       PRES   REMARKS
BEMIDJI        CLOUDY    -3  -6  85 NW9       30.13S WCI -19
HALLOCK        CLOUDY     3   0  85 NW8       30.25S WCI -10
ROSEAU         CLOUDY    -6  -9  84 W5        30.21R WCI -17
WARROAD        PTCLDY    -6  -9  84 W5        30.19S WCI -17
CROOKSTON      CLOUDY     5   1  85 N9        30.26R WCI  -9
FOSSTON        CLEAR     -6  -8  92 NW5       30.18S WCI -17
DETROIT LAKES  CLOUDY     1  -4  78 N9        30.17S WCI -14
MOORHEAD       CLEAR      3   0  85 NW7       30.25R WCI  -9
PARK RAPIDS    MOCLDY     3  -3  76 N13       30.11R WCI -14
MAHNOMEN       FAIR      -5  -9  84 N7        30.19R WCI -19
$$
MNZ006-009>011-018-025>026-091200-
   North Central Minnesota

CITY           SKY/WX    TMP DP  RH WIND       PRES   REMARKS
BAUDETTE       PTCLDY    -4  -9  79 NW9       30.15R HAZE    WCI -20
FLAG ISLAND    CLOUDY    -6  -9  84 NW7       30.17S WCI -20
INTL FALLS     CLOUDY    -4  -8  83 NW8       30.10S WCI -19
WASKISH        CLOUDY    -6  -9  84 W6        30.14S WCI -18
LONGVILLE      CLEAR      0  -4  85 NW7       30.09S WCI -13
GRAND RAPIDS   PTCLDY     0  -6  78 NW14      30.04R WCI -19
CRANE LAKE     CLOUDY     0  -4  85 NW10G17   30.08R WCI -17
ORR            CLOUDY     0  -6  78 NW7       30.02R WCI -13
COOK           CLOUDY     1  -4  78 NW9       30.03S WCI -14
WALKER         FAIR      -1  -5  83 NW13      30.11S WCI -19
$$
MNZ012-019>021-037-091200-
   Northeast Minnesota

CITY           SKY/WX    TMP DP  RH WIND       PRES   REMARKS
DULUTH         CLOUDY     1  -6  72 NW22G29   29.95R WCI -21
ELY            CLOUDY    -2  -6  84 N7        29.98R WCI -16
HIBBING        MIX PCPN  -1  -6  79 NW15G24   30.02R WCI -21
EVELETH        MOCLDY     1  -4  78 N12G18    30.01S WCI -15
DULUTH HARBOR  CLOUDY     7   0  72 NW14      30.06R WCI -10
TWO HARBORS    CLOUDY     7  -2  66 N7G17     29.95R WCI  -5
SILVER BAY     CLOUDY     5  -2  72 NW7G17    29.94R WCI  -7
GRAND MARAIS     N/A      6  -5  60 CALM      29.95R
G MARAIS ARPRT CLOUDY     0  -8  71 NW16G25   29.83R WCI -21
$$
MNZ029>031-032-039>041-046>048-054>057-064-091200-
   West Central Minnesota

CITY           SKY/WX    TMP DP  RH WIND       PRES   REMARKS
FERGUS FALLS   CLEAR      1  -2  85 N13       30.24S WCI -16
WHEATON        CLEAR      7   1  78 NW12      30.25F WCI  -9
MORRIS         CLEAR      3   0  85 NW18G25   30.17S WCI -17
ALEXANDRIA     CLEAR      2  -4  76 N15       30.12S WCI -17
ELBOW LAKE     FAIR       3  -2  80 NW15      30.18F WCI -16
WADENA         CLEAR      0  -4  85 N13       30.12S WCI -18
GLENWOOD       CLEAR      1  -2  85 NW15G21   30.13R WCI -18
APPLETON       CLEAR      7   0  72 NW16G22   30.21R WCI -11
BENSON         CLEAR      3  -2  78 N15G21    30.17R WCI -15
ORTONVILLE     CLEAR      7   0  72 NW16G22   30.22R WCI -11
MADISON        CLEAR      7   1  78 NW21      30.22R WCI -13
WILLMAR        FAIR       7   1  78 NW17      30.14R WCI -12
$$
MNZ033>034-036-042>043-049>051-058-059-091200-
   Central Minnesota

CITY           SKY/WX    TMP DP  RH WIND       PRES   REMARKS
ST CLOUD       CLEAR      4  -3  73 NW15G22   30.08R WCI -14
SAUK CENTRE    FAIR       3  -3  77 NW10      30.11S WCI -13
PAYNESVILLE    PTCLDY     5  -1  76 NW10      30.11S WCI -10
AITKIN         CLEAR      3  -6  66 NW12      30.05R WCI -13
PINE RIVER     CLEAR      1  -2  85 NW9G18    30.12R WCI -14
BRAINERD       CLEAR      2  -4  76 NW12      30.08R WCI -15
STAPLES        CLEAR      0  -4  85 NW10      30.11R WCI -17
LONG PRAIRIE   FAIR       3  -4  72 NW15      30.11R WCI -15
LITTLE FALLS   CLEAR      5  -4  66 NW9       30.11R WCI  -9
LITCHFIELD     CLEAR      7   1  78 NW17      30.10R WCI -12
BUFFALO        CLEAR      6  -1  72 NW13      30.10R WCI -10
MAPLE LAKE     CLEAR      7   1  76 NW12G18   30.10R WCI  -9
$$
MNZ037-044-045-052-053-091200-
   East Central Minnesota

CITY           SKY/WX    TMP DP  RH WIND       PRES   REMARKS
PRINCETON      CLEAR      5  -2  72 NW9       30.07R WCI  -9
MORA           CLEAR      5  -2  72 N13       30.07R WCI -12
CAMBRIDGE      PTCLDY     7  -2  66 NW9G16    30.04R WCI  -7
RUSH CITY      CLOUDY     5  -2  73 NW9G16    30.05R WCI -10
MOOSE LAKE     MOCLDY     1  -6  71 N10G20    30.02R WCI -14
HINCKLEY       CLOUDY     5   0  78 NW15G22   30.04R WCI -13
CLOQUET        CLOUDY     0  -6  78 NW13G20   30.00R WCI -18
MCGREGOR       CLOUDY     3  -2  78 NW9       30.05R WCI -11
$$
MNZ071>073-080-081-089-090-097-098-091200-
   Southwest Minnesota

CITY           SKY/WX    TMP DP  RH WIND       PRES   REMARKS
MONTEVIDEO     CLEAR      5   1  85 N21G26    30.19S WCI -16
GRANITE FALLS  CLEAR      8   2  78 NW16G26   30.18R WCI -10
CANBY          PTCLDY    10   5  81 NW16G22   30.21R WCI  -8
MARSHALL       CLEAR      6   1  80 N25G31    30.15R WCI -16
REDWOOD FALLS  PTCLDY     6   0  76 NW16G24   30.14R WCI -12
OLIVIA         CLEAR      9   3  78 NW16G22   30.13R WCI  -9
PIPESTONE      CLEAR      7  -4  61 N15G23    30.13R WCI -11
WINDOM         LGT SNOW   5   1  85 NW30      30.08R VSB 1   WCI -19
WORTHINGTON    CLOUDY     5   0  78 N25       30.11R WCI -18
JACKSON        CLOUDY     7   1  78 NW26G38   30.08R HAZE    WCI -16
TRACY            N/A      7   3  84 N21G28    30.14R FOG     WCI -14
SLAYTON        CLOUDY     4   2  88 NW18G28   30.11R FOG     WCI -16
$$
MNZ065>067-074>077-082>085-091>093-091200-
   South Central Minnesota

CITY           SKY/WX    TMP DP  RH WIND       PRES   REMARKS
MANKATO        CLEAR      9   0  66 NW20G26   30.06R WCI -11
NEW ULM        CLEAR      7   0  72 NW24      30.07R WCI -15
ST JAMES       MOCLDY     7   3  85 NW18      30.11R WCI -12
FAIRMONT       CLEAR      7   0  72 NW21      30.06R WCI -13
GLENCOE        CLEAR      8   2  76 NW14      30.08R WCI  -8
FARIBAULT      CLOUDY     9   1  72 NW12      30.03R WCI  -6
OWATONNA       MOCLDY     7   1  78 NW16G24   30.01R WCI -11
WASECA         PTCLDY     9   3  78 NW15      30.05R WCI  -8
ALBERT LEA     MOCLDY     9   3  78 NW14G23   30.00R WCI  -8
$$
MNZ078>079-086>088-094>096-091200-
   Southeast Minnesota

CITY           SKY/WX    TMP DP  RH WIND       PRES   REMARKS
ROCHESTER      MOCLDY     7   1  76 N16       29.95R WCI -11
RED WING       MOCLDY     9   0  66 N14G21    30.02R WCI  -8
STANTON        CLEAR      9   1  69 N13       30.02R WCI  -7
DODGE CENTER   MOCLDY     7   1  78 N20       29.96R WCI -13
WINONA         CLOUDY    10   3  72 NW14G20   29.99R WCI  -5
AUSTIN         CLOUDY     9   3  78 NW13      29.97R WCI  -7
PRESTON        CLOUDY     6   0  74 N12       29.94R WCI  -9
$$
ABBREVIATIONS USED IN REMARKS
   TC - TEMPERATURES IN CELSIUS
  WCI - WIND CHILL INDEX
   HX - HEAT INDEX
  VSB - VISIBILITY
$$



USA.gov is the U.S. government's official web portal to all federal, state and local government web resources and services.